Regional Weather Roundup
Issued by NWS

Home | Current Version | Previous Version | Graphics & Text | Print | Product List | Glossary On
Versions: 1 2 3 4 5 6 7 8 9 10 11 12 13 14 15 16 17 18 19 20 21 22 23 24 25 26 27 28
000
ASUS45 KCYS 240510
RWRWY

WYOMING REGIONAL WEATHER ROUNDUP
NATIONAL WEATHER SERVICE CHEYENNE WY
1100 PM MDT SAT JUL 23 2016

NOTE:  "FAIR" INDICATES FEW OR NO CLOUDS BELOW 12,000 FEET
WITH NO SIGNIFICANT WEATHER AND/OR OBSTRUCTIONS TO VISIBILITY.

WYZ001-240600-
YELLOWSTONE NATIONAL PARK

CITY           SKY/WX    TMP DP  RH WIND       PRES   REMARKS
LK YELLOWSTONE   N/A     50  34  54 CALM      30.36R
W YELLOWSTONE  NOT AVBL

$$
WYZ002>013-054>058-071-098>099-240600-
NORTHERN WYOMING

CITY           SKY/WX    TMP DP  RH WIND       PRES   REMARKS
JACKSON        FAIR      48  28  46 N6        30.24R
CODY           FAIR      68  36  30 N6        30.19R
GREYBULL       FAIR      79  33  19 N15       30.03R
WORLAND        FAIR      74  33  22 N6        30.06R
SHERIDAN       FAIR      64  41  42 SE3       30.11R
BUFFALO        FAIR      68  35  29 NW9       30.19R
GILLETTE       FAIR      56  36  47 CALM      30.12R
HULETT         FAIR      68  36  30 E5        30.14R
NEWCASTLE      FAIR      72  34  25 N9        30.09R

$$
WYZ014>020-022>026-101>103-240600-
CENTRAL WYOMING

CITY           SKY/WX    TMP DP  RH WIND       PRES   REMARKS
BIG PINEY      FAIR      53  25  33 N9        30.28R
PINEDALE       FAIR      54  30  40 NW6       30.30R
DUBOIS         FAIR      63  21  20 NW8       30.27S
LANDER         FAIR      70  24  17 W12       30.12R
RIVERTON       FAIR      74  35  24 NE14      30.13R
CASPER         FAIR      71  37  28 NE16      30.11R
DOUGLAS          N/A    N/A N/A N/A MISG      30.10S

$$
WYZ021-027>030-104>119-240600-
SOUTHERN WYOMING

CITY           SKY/WX    TMP DP  RH WIND       PRES   REMARKS
EVANSTON       FAIR      69  14  12 NW5       30.28R
KEMMERER         N/A     59  28  31 N12       30.30R
FORT BRIDGER   FAIR      63  15  15 W7        30.30R
ROCK SPRINGS   FAIR      67  20  16 NW7       30.24R
DIXON          FAIR      70  35  27 E6        30.23S
RAWLINS        FAIR      65   9  11 NW10      30.21R
SARATOGA       FAIR      66  36  32 CALM      30.26R
LARAMIE        FAIR      65  40  39 S9        30.25R
CHEYENNE       FAIR      70  47  43 S9        30.20R
TORRINGTON     FAIR      75  47  36 E17       30.03R
PINE BLUFFS    FAIR      68  52  56 S9        30.13F

$$




USA.gov is the U.S. government's official web portal to all federal, state and local government web resources and services.